Regional Weather Roundup
Issued by NWS Green Bay, WI

Home | Current Version | Previous Version | Text Only | Print | Product List | Glossary On
Versions: 1 2 3 4 5 6 7 8 9 10 11 12 13 14 15 16 17 18 19 20 21 22 23 24 25 26 27 28 29 30 31 32 33 34 35 36 37 38 39 40 41 42 43 44 45 46 47 48 49 50
903
ASUS43 KGRB 290911
RWRGRB

NORTH-CENTRAL AND NORTHEAST WISCONSIN REGIONAL WEATHER ROUNDUP
NATIONAL WEATHER SERVICE GREEN BAY WI
400 AM CDT FRI JUL 29 2016

WIZ005-009-010>012-018-019-291000-
NORTH CENTRAL WISCONSIN

CITY           SKY/WX    TMP DP  RH WIND       PRES   REMARKS
IRONWOOD       PTCLDY    45  43  93 CALM      30.10S
MANITOWISH WTR CLEAR     49  49 100 CALM      30.09F
ARBOR VITAE    CLEAR     51  49  93 CALM      30.08F
EAGLE RIVER    CLEAR     47  47 100 CALM      30.08F
LAND O LAKES   FOG       44  44  99 CALM      30.10F VSB 1
RHINELANDER    CLEAR     50  47  89 CALM      30.08F
PHILLIPS       CLEAR     50  50 100 CALM      30.09R FOG
ANTIGO         CLOUDY    56  52  86 CALM      30.07R
TOMAHAWK       CLEAR     47  47  97 CALM      30.08S
MERRILL        CLOUDY    56  53  89 N3        30.08S
$$

WIZ013-073-291000-
NORTHEAST WISCONSIN

CITY           SKY/WX    TMP DP  RH WIND       PRES   REMARKS
IRON MOUNTAIN  CLEAR     52  48  86 CALM      30.05F
MARINETTE      CLOUDY   N/A N/A N/A NE7       30.03F
OCONTO         PTCLDY    58  58 100 NE5       30.01F
$$

WIZ017-030-035>037-045-291000-
CENTRAL WISCONSIN

CITY           SKY/WX    TMP DP  RH WIND       PRES   REMARKS
MEDFORD        CLOUDY    57  54  88 NE7       30.07S
WAUSAU         CLOUDY    61  53  75 N5        30.04S
MOSINEE        CLOUDY    59  54  82 N7        30.05F
MARSHFIELD     CLOUDY    62  55  77 NE7       30.04S
WISC RAPIDS    CLOUDY    62  52  69 NE7       30.04S
STEVENS POINT  CLOUDY    56  55  95 CALM      30.04S
WAUPACA        CLOUDY    63  56  78 N6        30.02F
SHAWANO        CLOUDY    61  55  78 NE8       30.04S
CLINTONVILLE   CLOUDY    59  52  77 NE3       30.03S
WAUTOMA        RAIN      59  57  93 N3        30.02S
$$

WIZ038-039-048-051-291000-
FOX VALLEY

CITY           SKY/WX    TMP DP  RH WIND       PRES   REMARKS
NWS GREEN BAY  CLOUDY    61  59  93 N8        30.01F
APPLETON       CLOUDY    59  52  77 NE9       29.99F
OSHKOSH        CLOUDY    64  60  87 NE14      29.99S
FOND DU LAC    LGT RAIN  64  61  90 NE7       29.99S
$$

WIZ022-050-052-291000-
EAST CENTRAL WISCONSIN

CITY           SKY/WX    TMP DP  RH WIND       PRES   REMARKS
EPHRAIM        CLOUDY    63  58  82 NE3       30.02F
WASHINGTON ISL NOT AVBL
STURGEON BAY   CLOUDY    64  59  83 NE6       30.02F
MANITOWOC      LGT RAIN  62  60  93 N8        29.99F
SHEBOYGAN      CLOUDY    64  61  90 N10       29.98S
$$

LMZ563-521-522-541>543-291000-
LAKESHORE

STATION/POSITION TIME  TEMP    WIND        PRES    VSBY  WAVE
                       AIR SEA DIR/SP/G                  HT/PER
                 (UTC) (F)     (DEG/KT/KT) (MB)    (MI)  (FT/S)
SHEBOYGAN LKSHOR 0900   61     350/ 14/ 15 1015.4F
KEWAUNEE LKSHORE 0800   63     290/  2/  4 1016.1R
NORTHPORT PIER   0840   65      10/  6/  9 1016.9S
N MID LAKE BUOY  0850   67 69   70/ 12/ 14 1015.8S         2/ 4
SISTER BAY LKSHO 0821   65        CALM       N/A
CHAMBERS ISLAND  0840   67      40/ 10/ 14 1016.9S
MENOMINEE LKSHOR 0800   63      20/ 11/ 14 1016.1F
$$




USA.gov is the U.S. government's official web portal to all federal, state and local government web resources and services.